EW9310 Weather Reports


Display with metric or nautical units.
time (UTC)temp
F
wind
direction
speed
MPH
gust
MPH
rain 1hr
in
rain 24hr
in
rain mn
in
humidity
%
barometer
mb
20260504050513 46 144 0.0 0.0 0.00 0.02 0.00 90 1009.0
20260504045507 46 144 0.0 0.0 0.00 0.02 0.00 90 1009.1
20260504045004 46 144 0.0 0.0 0.00 0.02 0.00 90 1009.1
20260504044525 46 144 0.0 0.0 0.00 0.02 0.00 90 1009.1
20260504044007 46 144 0.0 0.0 0.00 0.02 0.00 90 1009.2
20260504043504 46 144 0.0 0.0 0.00 0.02 0.00 90 1009.2
20260504043013 46 144 0.0 0.0 0.00 0.02 0.00 90 1009.2
20260504042505 46 144 0.0 0.0 0.00 0.02 0.00 90 1009.3
20260504042006 46 144 0.0 0.0 0.00 0.02 0.00 90 1009.3
20260504041518 46 144 0.0 0.0 0.00 0.02 0.00 90 1009.2
20260504041006 46 144 0.0 2.0 0.00 0.02 0.00 90 1009.1
20260504040507 46 144 0.0 2.0 0.00 0.02 0.00 90 1009.2
20260504040037 46 144 0.0 0.0 0.00 0.02 0.00 90 1009.2
20260504035506 46 144 0.0 0.0 0.00 0.02 0.02 90 1009.3
20260504035008 46 144 0.0 0.0 0.00 0.02 0.02 90 1009.3
20260504034507 46 144 0.0 0.0 0.00 0.02 0.02 90 1009.3
20260504034004 46 144 0.0 2.0 0.00 0.02 0.02 90 1009.3
20260504033504 46 144 0.0 2.0 0.00 0.02 0.02 90 1009.3
20260504033019 46 144 0.0 2.0 0.00 0.02 0.02 90 1009.3
20260504032504 46 110 0.0 2.0 0.00 0.02 0.02 90 1009.4
20260504032008 46 9 0.0 2.0 0.00 0.02 0.02 90 1009.6
20260504031520 46 14 0.0 2.0 0.00 0.02 0.02 90 1009.5
20260504031009 46 169 0.0 1.0 0.00 0.02 0.02 89 1009.5
20260504030507 46 169 0.0 0.0 0.00 0.02 0.02 89 1009.5
20260504030009 46 169 0.0 0.0 0.00 0.02 0.02 89 1009.7
20260504025504 46 169 0.0 1.0 0.00 0.02 0.02 89 1009.6
20260504025009 47 169 0.0 1.0 0.00 0.02 0.02 89 1009.5
20260504024513 47 169 0.0 0.0 0.01 0.02 0.02 89 1009.5
20260504024004 47 169 0.0 2.0 0.01 0.02 0.02 88 1009.5
20260504023505 47 169 0.0 2.0 0.01 0.02 0.02 88 1009.5
20260504023029 47 169 0.0 2.0 0.01 0.02 0.02 87 1009.6
20260504022506 47 169 0.0 1.0 0.01 0.02 0.02 87 1009.8
20260504022007 47 169 1.0 1.0 0.02 0.02 0.02 86 1009.9
20260504021529 48 291 0.0 1.0 0.02 0.02 0.02 84 1010.3
20260504021013 48 291 0.0 2.0 0.02 0.02 0.02 84 1010.4
20260504020509 48 291 0.0 2.0 0.02 0.02 0.02 83 1010.5
20260504020006 48 291 0.0 2.0 0.02 0.02 0.02 82 1010.3
20260504015511 48 291 0.0 3.0 0.02 0.02 0.02 80 1010.3
20260504015003 48 308 0.0 3.0 0.02 0.02 0.02 80 1010.2
20260504014527 49 253 1.0 3.0 0.01 0.01 0.01 79 1010.4
20260504014003 49 286 0.0 2.0 0.01 0.01 0.01 79 1010.6
20260504013505 49 236 1.0 2.0 0.01 0.01 0.01 77 1010.7
20260504013019 50 300 0.0 5.0 0.01 0.01 0.01 1010.8
20260504012510 50 206 0.0 5.0 0.01 0.01 0.01 1010.8
20260504012008 50 229 1.0 5.0 0.00 0.00 0.00 71 1010.7
20260504011525 50 287 1.0 7.0 0.00 0.00 0.00 71 1010.4
20260504011007 50 342 2.0 7.0 0.00 0.00 0.00 70 1010.1
20260504010507 50 296 2.0 11.0 0.00 0.00 0.00 70 1010.1
20260504010011 50 244 3.0 11.0 0.00 0.00 0.00 69 1010.0
20260504005502 51 309 1.0 9.0 0.00 0.00 0.00 69 1010.0
20260504005003 51 15 2.0 12.0 0.00 0.00 0.00 65 1010.1
20260504004514 51 322 6.0 12.0 0.00 0.00 0.00 63 1010.1
20260504004006 51 240 2.0 8.0 0.00 0.00 0.00 63 1009.9
20260504003505 52 360 0.0 6.0 0.00 0.00 0.00 61 1009.8
20260504003020 52 360 1.0 9.0 0.00 0.00 0.00 59 1009.8
20260504002507 52 344 3.0 14.0 0.00 0.00 0.00 59 1009.7
20260504002006 52 211 3.0 14.0 0.00 0.00 0.00 59 1009.7
20260504001527 52 284 0.0 2.0 0.00 0.00 0.00 60 1009.6
20260504001007 53 275 0.0 2.0 0.00 0.00 0.00 54 1009.5
20260504000501 53 298 0.0 3.0 0.00 0.00 0.00 55 1009.4
20260504000028 53 313 0.0 4.0 0.00 0.00 0.00 55 1009.1
20260503235503 53 149 2.0 3.0 0.00 0.00 0.00 51 1009.1
20260503235009 53 110 0.0 2.0 0.00 0.00 0.00 53 1009.3
20260503234520 53 110 1.0 2.0 0.00 0.00 0.00 50 1009.1
20260503234006 53 269 0.0 3.0 0.00 0.00 0.00 49 1009.2
20260503233509 53 269 0.0 3.0 0.00 0.00 0.00 49 1009.1
20260503233031 53 261 2.0 3.0 0.00 0.00 0.00 48 1009.1
20260503232510 54 189 1.0 3.0 0.00 0.00 0.00 49 1009.2
20260503232007 54 199 1.0 8.0 0.00 0.00 0.00 49 1009.4
20260503231531 54 26 0.0 8.0 0.00 0.00 0.00 48 1009.5
20260503231009 54 223 2.0 4.0 0.00 0.00 0.00 48 1009.7
20260503230504 54 352 0.0 4.0 0.00 0.00 0.00 47 1010.0
20260503230011 54 304 2.0 5.0 0.00 0.00 0.00 47 1010.1
20260503225507 54 327 2.0 10.0 0.00 0.00 0.00 47 1010.1
20260503225012 54 323 1.0 17.0 0.00 0.00 0.00 46 1009.9
20260503224524 55 295 5.0 17.0 0.00 0.00 0.00 45 1009.9
20260503224007 55 336 2.0 6.0 0.00 0.00 0.00 45 1009.9
20260503223507 55 200 1.0 6.0 0.00 0.00 0.00 44 1009.8
20260503223022 56 326 3.0 6.0 0.00 0.00 0.00 43 1009.8
20260503222509 56 360 1.0 5.0 0.00 0.00 0.00 42 1009.7
20260503222008 56 329 1.0 5.0 0.00 0.00 0.00 43 1009.6
20260503221528 56 319 1.0 2.0 0.00 0.00 0.00 42 1009.6
20260503221003 56 323 1.0 2.0 0.00 0.00 0.00 42 1009.5
20260503220504 56 336 0.0 3.0 0.00 0.00 0.00 42 1009.5
20260503220012 56 293 2.0 3.0 0.00 0.00 0.00 43 1009.5
20260503215506 56 258 1.0 2.0 0.00 0.00 0.00 43 1009.6
20260503215005 56 324 0.0 10.0 0.00 0.00 0.00 42 1009.6
20260503214521 56 298 1.0 10.0 0.00 0.00 0.00 42 1009.6
20260503214007 56 221 5.0 8.0 0.00 0.00 0.00 43 1009.6
20260503213511 56 323 2.0 8.0 0.00 0.00 0.00 42 1009.5
20260503213026 56 277 2.0 8.0 0.00 0.00 0.00 43 1009.6
20260503212510 56 250 1.0 7.0 0.00 0.00 0.00 42 1009.5
20260503212011 55 360 3.0 9.0 0.00 0.00 0.00 42 1009.5
20260503211526 55 194 5.0 9.0 0.00 0.00 0.00 42 1009.6
20260503211002 56 350 2.0 6.0 0.00 0.00 0.00 42 1009.6
20260503210506 55 326 1.0 4.0 0.00 0.00 0.00 44 1009.6
20260503210028 55 259 2.0 6.0 0.00 0.00 0.00 46 1009.7
20260503205510 55 289 3.0 11.0 0.00 0.00 0.00 44 1009.6
20260503205010 55 217 6.0 12.0 0.00 0.00 0.00 44 1009.7
20260503204534 55 350 2.0 12.0 0.00 0.00 0.00 44 1009.7
20260503204012 56 234 2.0 6.0 0.00 0.00 0.00 44 1009.9
20260503203509 56 224 2.0 6.0 0.00 0.00 0.00 43 1009.9
20260503203027 56 324 1.0 5.0 0.00 0.00 0.00 41 1010.0
20260503202509 55 33 2.0 8.0 0.00 0.00 0.00 41 1010.1
20260503202010 56 24 4.0 8.0 0.00 0.00 0.00 38 1010.1
20260503201531 56 290 2.0 6.0 0.00 0.00 0.00 39 1010.1
20260503201004 57 289 3.0 8.0 0.00 0.00 0.00 36 1010.2
20260503200507 57 344 4.0 8.0 0.00 0.00 0.00 36 1010.2
20260503200022 57 286 3.0 8.0 0.00 0.00 0.00 34 1010.2
20260503195506 56 199 2.0 11.0 0.00 0.00 0.00 38 1010.5
20260503195009 55 304 3.0 11.0 0.00 0.00 0.00 39 1010.6
20260503194533 55 336 2.0 5.0 0.00 0.00 0.00 39 1010.6
20260503194010 55 322 2.0 10.0 0.00 0.00 0.00 39 1010.6
20260503193510 55 33 3.0 10.0 0.00 0.00 0.00 38 1010.7
20260503193038 55 352 2.0 8.0 0.00 0.00 0.00 37 1010.7
20260503192509 55 336 2.0 8.0 0.00 0.00 0.00 38 1010.7
20260503192010 55 310 3.0 9.0 0.00 0.00 0.00 40 1010.7
20260503191523 55 349 4.0 9.0 0.00 0.00 0.00 38 1010.6
20260503191004 55 350 2.0 7.0 0.00 0.00 0.00 36 1010.7
20260503190506 55 303 2.0 8.0 0.00 0.00 0.00 39 1010.7
20260503190031 55 301 2.0 8.0 0.00 0.00 0.00 36 1010.7
20260503185510 55 17 1.0 5.0 0.00 0.00 0.00 37 1010.7
20260503185008 55 336 1.0 8.0 0.00 0.00 0.00 36 1010.7
20260503184528 55 328 2.0 8.0 0.00 0.00 0.00 37 1010.8
20260503184011 55 360 3.0 8.0 0.00 0.00 0.00 34 1010.7
20260503183511 55 252 3.0 7.0 0.00 0.00 0.00 34 1010.8
20260503183026 54 315 2.0 10.0 0.00 0.00 0.00 36 1010.8
20260503182507 54 181 5.0 13.0 0.00 0.00 0.00 38 1010.9
20260503182010 54 250 6.0 13.0 0.00 0.00 0.00 38 1011.0
20260503181517 55 202 2.0 5.0 0.00 0.00 0.00 35 1011.1
20260503181008 54 225 1.0 11.0 0.00 0.00 0.00 34 1011.1
20260503180507 54 315 3.0 11.0 0.00 0.00 0.00 35 1011.2
20260503180030 55 213 2.0 14.0 0.00 0.00 0.00 35 1011.3
20260503175506 55 260 6.0 14.0 0.00 0.00 0.00 35 1011.3
20260503175009 55 292 4.0 10.0 0.00 0.00 0.00 34 1011.3
20260503174533 55 105 2.0 8.0 0.00 0.00 0.00 35 1011.4
20260503174008 55 271 2.0 8.0 0.00 0.00 0.00 35 1011.4
20260503173510 55 55 4.0 9.0 0.00 0.00 0.00 36 1011.5
20260503173028 54 17 4.0 9.0 0.00 0.00 0.00 34 1011.6
20260503172511 54 265 3.0 8.0 0.00 0.00 0.00 35 1011.6
20260503172007 54 331 4.0 8.0 0.00 0.00 0.00 35 1011.7
20260503171530 54 292 2.0 11.0 0.00 0.00 0.00 35 1011.7
20260503171010 53 315 3.0 12.0 0.00 0.00 0.00 35 1011.7
20260503170508 54 209 3.0 12.0 0.00 0.00 0.00 37 1011.9
20260503151009 50 282 2.0 11.0 0.00 0.00 0.00 37 1013.6
20260503150509 50 334 4.0 11.0 0.00 0.00 0.00 36 1013.5
20260503131012 46 319 1.0 6.0 0.00 0.00 0.00 53 1014.0
20260503130509 46 352 2.0 6.0 0.00 0.00 0.00 52 1014.0
20260503110504 35 304 0.0 2.0 0.00 0.00 0.00 88 1013.5
20260503090507 37 258 0.0 2.0 0.00 0.00 0.00 77 1013.1
20260503081526 38 279 0.0 0.0 0.00 0.00 0.00 79 1013.3
20260503081006 38 279 0.0 0.0 0.00 0.00 0.00 80 1013.3
20260503080506 38 279 0.0 0.0 0.00 0.00 0.00 80 1013.3
20260503072504 39 253 0.0 1.0 0.00 0.00 0.00 80 1013.3
20260503072008 39 244 0.0 0.0 0.00 0.00 0.00 80 1013.3
20260503071522 39 261 0.0 0.0 0.00 0.00 0.00 80 1013.2
20260503071009 39 266 0.0 1.0 0.00 0.00 0.00 80 1013.3
20260503070508 39 266 0.0 1.0 0.00 0.00 0.00 80 1013.2